Regional Weather Roundup
Issued by NWS

Home | Current Version | Previous Version | Text Only | Print | Product List | Glossary On
Versions: 1 2 3 4 5 6 7 8 9 10 11 12 13 14 15 16 17 18 19 20 21 22 23 24 25 26 27 28 29 30 31 32 33 34 35 36 37 38 39 40 41 42 43 44 45 46 47 48 49 50
000
ASUS43 KMKX 310100
RWRWI

WISCONSIN REGIONAL WEATHER ROUNDUP
NATIONAL WEATHER SERVICE MILWAUKEE/SULLIVAN WI
800 PM CDT SAT AUG 30 2014

NOTE: "FAIR" INDICATES FEW OR NO CLOUDS BELOW 12,000 FEET WITH NO
SIGNIFICANT WEATHER AND/OR OBSTRUCTIONS TO VISIBILITY.

WIZ001-002-006>008-014>016-023>028-310200-
NORTHWEST WISCONSIN

CITY           SKY/WX    TMP DP  RH WIND       PRES   REMARKS
SUPERIOR ARPT  CLOUDY    62  60  94 NE8       29.89R
ASHLAND        CLOUDY    61  58  90 N5        29.92R
HAYWARD        CLOUDY    63  60  90 N5        29.91R
SIREN          PTCLDY    66  61  84 CALM      29.89R
RICE LAKE      CLOUDY    64  61  88 CALM      29.90R
LADYSMITH      PTCLDY    65  61  85 NE3       29.90S
EAU CLAIRE     NOT AVBL
MENOMONIE      CLOUDY    67  61  80 CALM      29.88S
NEW RICHMOND   CLEAR     65  59  81 E3        29.88R
OSCEOLA        CLEAR     66  64  92 SE3       29.90R
$$

WIZ003>005-009-010-017-018-310200-
NORTH CENTRAL WISCONSIN

CITY           SKY/WX    TMP DP  RH WIND       PRES   REMARKS
WOODRUFF       CLOUDY    59  57  91 N6        29.91R
RHINELANDER    MOCLDY    59  56  89 N3        29.91R
EAGLE RIVER    CLOUDY    57  57 100 N3        29.89R
LAND O LAKES   CLOUDY    58  56  94 N8        29.91R
PHILLIPS       MOCLDY    61  58  88 N3        29.89R
TOMAHAWK       CLOUDY    60  57  88 CALM      29.90R
MEDFORD        CLOUDY    62  58  89 N3        29.89R
MERRILL        CLOUDY    63  61  93 CALM      29.88R
$$

WIZ029-030-035-036-043>047-310200-
CENTRAL WISCONSIN

CITY           SKY/WX    TMP DP  RH WIND       PRES   REMARKS
WAUSAU         CLOUDY    64  60  87 NW7       29.87R
MOSINEE        CLOUDY    64  63  94 NW9       29.89R
MARSHFIELD     CLOUDY    66  61  84 N9        29.88R
STEVENS POINT  CLOUDY    67  62  84 NW6       29.87R
WAUPACA        MOCLDY    72  66  82 NW5       29.85R
WAUTOMA        MOCLDY    73  70  88 CALM      29.85R
WISC RAPIDS    CLOUDY    69  62  78 NW9       29.88R
CAMP DOUGLAS   MOCLDY    68  68 100 NW7       29.87R
$$

WIZ011>013-019>022-031-037>040-048>050-310200-
NORTHEAST WISCONSIN

CITY           SKY/WX    TMP DP  RH WIND       PRES   REMARKS
ANTIGO         CLOUDY    62  60  93 NW6       29.88R
STURGEON BAY   CLOUDY    66  63  88 N8        29.83R
GREEN BAY      MOCLDY    69  66  90 NW6       29.84R
MANITOWOC      NOT AVBL
APPLETON       MOCLDY    68  66  94 W7        29.85R
CLINTONVILLE   MOCLDY    68  63  83 NW7       29.84R
OSHKOSH        PTCLDY    70  66  87 SW5       29.84R
$$

WIZ032>034-041-042-053>061-310200-
SOUTHWEST WISCONSIN

CITY           SKY/WX    TMP DP  RH WIND       PRES   REMARKS
LA CROSSE      PTCLDY    72  65  78 N7        29.86R
SPARTA         CLOUDY    70  63  79 N6        29.88R
VIROQUA        FAIR      69  69  98 CALM      29.88R
BOSCOBEL       CLEAR     72  67  84 CALM      29.86R
PRAIRIE DU CHI PTCLDY    75  65  70 CALM      29.84S
PLATTEVILLE    FAIR      73  69  86 CALM      29.88R
$$

WIZ056-057-062-063-064-067-068-310200-
SOUTH CENTRAL WISCONSIN

CITY           SKY/WX    TMP DP  RH WIND       PRES   REMARKS
BARABOO/DELLS  PTCLDY    73  65  75 CALM      29.86R
LONE ROCK      NOT AVBL
WATERTOWN      CLEAR     73  68  83 W3        29.85R
MADISON        PTCLDY    75  65  70 CALM      29.86R
MIDDLETON      FAIR      74  65  75 W3        29.86R
MONROE         PTCLDY    73  66  78 SW8       29.87R
JANESVILLE     PTCLDY    73  66  78 SW7       29.86R
$$

WIZ051-052-058>065-066-070>072-310200-
SOUTHEAST WISCONSIN

CITY           SKY/WX    TMP DP  RH WIND       PRES   REMARKS
MILWAUKEE      PTCLDY    74  68  81 SW5       29.85R
WAUKESHA       NOT AVBL
MILWAUKEE/TIMM CLEAR     73  64  73 W3        29.86R
RACINE         CLEAR     73  66  78 SW6       29.87R
BURLINGTON     CLEAR     71  65  83 SW5       29.86R
KENOSHA        CLEAR     70  66  87 SW5       29.86R
FOND DU LAC    CLEAR     69  67  93 SW3       29.85R
SHEBOYGAN      CLEAR     69  65  86 W7        29.83R
WEST BEND      PTCLDY    72  63  73 W6        29.85R
JUNEAU         CLEAR     71  66  84 CALM      29.86R
$$

LSZ147-162-310200-
LAKE SUPERIOR

STATION/POSITION TIME  TEMP    WIND        PRES    WAVE
                       AIR SEA DIR/SP/G            HT/PER
                 (UTC) (F)     (DEG/KT/KT) (MB)    (FT/S)
W MID LAKE BUOY  2350   58 58  260/  2/  4 1011.8R   1/ 4
DEVILS ISLAND    0000   61     170/  4/  5 1012.4R
PORT WING        0000   63     100/  3/  5 1012.5R
SAXON HARBOR     0000   62      50/  4/  5 1012.2S
$$

LMZ867-665-643>646-310200-
LAKE MICHIGAN

STATION/POSITION TIME  TEMP    WIND        PRES    WAVE
                       AIR SEA DIR/SP/G            HT/PER
                 (UTC) (F)     (DEG/KT/KT) (MB)    (FT/S)
N MID LAKE BUOY  2350   63 65  320/ 19/ 23 1007.2R   4/ 6
NORTHPORT PIER   0000   66     330/ 16/ 18 1008.5R
SISTER BAY       0041   65     350/ 17/ 20   N/A
ALGOMA LAKESHORE 0038          340/ 10/ 14   N/A
KEWAUNEE LAKESHO 0000   71     320/  4/  7 1008.0R
SHEBOYGAN LAKESH 0000   72 52  250/  7/  8 1009.3R
ATWATER BUOY     0000   72     250/  6/  8 1011.1R
MILWAUKEE LAKESH 0000   77     280/  7/ 10   N/A
S MID LAKE BUOY  2350   73 69  240/ 10/ 12 1009.9R   2/ 4
KENOSHA   LAKESH 0000   79     250/ 10/ 15 1009.8R
$$

TC  - TEMPERATURE IN CELSIUS
VSB - VISIBILITY IN STATUTE MILES
WCI - WIND CHILL INDEX
HX  - HEAT INDEX



USA.gov is the U.S. government's official web portal to all federal, state and local government web resources and services.